Skip Page Navigation
NASA JPL Caltech
NASA Logo - Jet Propulsion Laboratory + View the NASA Portal
+ Center for Near-Earth Object Studies
JPL Home Earth Solar System Stars & Galaxies Technology
JPL Solar System Dynamics
BODIES ORBITS EPHEMERIDES TOOLS PHYSICAL DATA DISCOVERY FAQ SITE MAP
IMPORTANT: The SSD Announcement email list is now available. Major changes are coming in the near future, including possible hostname and/or URL changes. To be notified of such changes, subscribe to this email list.

Please visit this page for more details.


JPL Small-Body Database Browser
Search: [ help ]  
12923 Zephyr (1999 GK4)
Classification: Apollo [NEO, PHA]          SPK-ID: 2012923
Ephemeris | Orbit Diagram | Orbital Elements | Mission Design | Physical Parameters | Discovery Circumstances | Close-Approach Data ]

[ show orbit diagram ]
Orbital Elements at Epoch 2458600.5 (2019-Apr-27.0) TDB
Reference: JPL 223 (heliocentric ecliptic J2000)
 Element Value Uncertainty (1-sigma)   Units 
e .4918352503058337 4.4537e-08  
a 1.961954177165733 5.4287e-09 au
q .9969959533508487 8.6783e-08 au
i 5.303307893361786 5.7214e-06 deg
node 168.2051640898461 4.1361e-05 deg
peri 147.0430546906355 4.1709e-05 deg
M 54.47276108496708 9.3893e-06 deg
tp 2458448.617196435216
(2018-Nov-26.11719644)
2.5682e-05 TDB
period 1003.764233614582
2.75
4.1661e-06
1.141e-08
d
yr
n .3586499577730823 1.4886e-09 deg/d
Q 2.926912400980618 8.0988e-09 au
  Orbit Determination Parameters
   # obs. used (total)      1116  
   data-arc span      23607 days (64.63 yr)  
   first obs. used      1955-04-21  
   last obs. used      2019-12-08  
   planetary ephem.      DE431  
   SB-pert. ephem.      SB431-N16  
   condition code      0  
   norm. resid. RMS      .54825  
   source      ORB  
   producer      Otto Matic  
   solution date      2019-Dec-09 05:13:36  

Additional Information
 Earth MOID = .021265 au 
 Jupiter MOID = 2.40753 au 
 T_jup = 3.717 
[ show covariance matrix ]

Ephemeris | Orbit Diagram | Orbital Elements | Mission Design | Physical Parameters | Discovery Circumstances | Close-Approach Data ]

Physical Parameter Table
Parameter Symbol Value Units Sigma Reference Notes
absolute magnitude H 15.7   n/a MPO439181  
diameter diameter 2.060 km 0.013 urn:nasa:pds:neowise_diameters_albedos::2.0[neos] (http://adsabs.harvard.edu/abs/2011ApJ...743..156M)  
rotation period rot_per 3.891 h n/a LCDB (Rev. 2019-January); Warner et al., 2009 Published Reference List:
[Pravec, P.; Wolf, M.; Sarounova, L. (1999) http://www.asu.cas.cz/~ppravec/neo.htm]
geometric albedo albedo 0.199   0.034 urn:nasa:pds:neowise_diameters_albedos::2.0[neos] (http://adsabs.harvard.edu/abs/2011ApJ...743..156M)  
SMASSII spectral type spec_B S:   n/a Binzel et al. (2004) Icarus 170, 259-294 SMASSIR data only, classification consistent with specified type, but uncertain

12923 Zephyr           Discovered 1999 Apr. 11 by the Lowell Observatory Near-Earth Object Search at the Anderson Mesa Station.
The word zephyr derives from the name of the ancient Greek god of the west wind, Zephyros. The name was suggested by M. Smitherman.
NOTE: some special characters may not display properly (any characters within {} are an attempt to place the proper accent above a character)
Reference: 20040928/MPCPages.arcLast Updated: 2004-09-28

[ show close-approach data ]
Ephemeris | Orbit Diagram | Orbital Elements | Mission Design | Physical Parameters | Discovery Circumstances | Close-Approach Data ]
ABOUT SSD CREDITS/AWARDS PRIVACY/COPYRIGHT GLOSSARY LINKS
FirstGov 2019-Dec-14 17:10 UT
(server date/time)  
NASA Home Page
Site Manager:   Ryan S. Park
Webmaster  Alan B. Chamberlin